Regional Weather Roundup
Issued by NWS Kansas City/Pleasant Hill, MO

Home | Current Version | Previous Version | Text Only | Print | Product List | Glossary On
Versions: 1 2 3 4 5 6 7 8 9 10 11 12 13 14 15 16 17 18 19 20 21 22 23 24 25 26 27 28 29 30 31 32 33 34 35 36 37 38 39 40 41 42 43 44 45 46 47 48 49 50
000
ASUS43 KEAX 222111
RWREAX

WEATHER ROUNDUP FOR EASTERN KANSAS AND NORTHWEST MISSOURI
NATIONAL WEATHER SERVICE KANSAS CITY/PLEASANT HILL MO
400 PM CDT WED OCT 22 2014

KSZ040-057-103>105-MOZ028-029-037-043-222200-
...KANSAS CITY METROPOLITAN AREA...

CITY           SKY/WX    TMP DP  RH WIND       PRES   REMARKS
K.C. INTL      MOSUNNY   71  56  58 SE13      30.09F
K.C. DOWNTOWN  SUNNY     75  56  51 S10       30.09F
LEES SUMMIT    SUNNY     72  53  51 SE9       30.11F
OLATHE - IXD   SUNNY     73  57  57 SE13      30.11S
OLATHE - OJC   SUNNY     72  57  59 SE13      30.10F
LAWRENCE       SUNNY     75  57  53 SE15      30.09S

$$

MOZ001>008-011>017-020>025-030>033-038>040-044>046-053-054-222200-
...NORTHERN AND CENTRAL MISSOURI...

CITY           SKY/WX    TMP DP  RH WIND       PRES   REMARKS
ST. JOSEPH     SUNNY     73  55  53 SE14      30.08F
MOSBY          PTCLDY    72  50  46 SE9       30.11S
WHITEMAN AFB   SUNNY     71  49  45 SE12      30.13F
CLINTON        SUNNY     72  52  49 SE10      30.13F
SEDALIA        SUNNY     70  48  45 SE12      30.16F
WARSAW         NOT AVBL
MARSHALL       SUNNY     72  50  46 SE9       30.16F
CHILLICOTHE      N/A     69  48  47 SE12G17   30.14F
MOBERLY        SUNNY     68  39  34 SE9       30.19F
KIRKSVILLE     SUNNY     64  45  49 SE14      30.18F

$$

MOZ041-047>049-056>058-063>065-088>090-097-222200-
...EASTERN AND SOUTHERN MISSOURI...

CITY           SKY/WX    TMP DP  RH WIND       PRES   REMARKS
ST. LOUIS INTL SUNNY     63  43  48 SE7       30.24F
SPIRIT OF STL  SUNNY     62  42  47 E5        30.23F
COLUMBIA       SUNNY     65  44  46 SE8       30.19F
JEFFERSON CITY SUNNY     68  42  38 SE7       30.18F
MEXICO         SUNNY     68  46  45 E6        30.21F
HANNIBAL       SUNNY     64  37  36 NE7       30.21F
ROLLA          SUNNY     65  41  41 SE7       30.18F
LEBANON        SUNNY     70  43  37 SE9       30.18S
OSAGE BEACH    SUNNY     70  43  37 SE6       30.17F
SPRINGFIELD    SUNNY     70  48  45 S7        30.15F
BRANSON        SUNNY     72  48  43 E8        30.18F
NEVADA         MOSUNNY   73  55  53 SE8       30.13F
JOPLIN         MOSUNNY   72  57  59 E6        30.12F
WEST PLAINS    SUNNY     66  44  45 CALM      30.20F

$$

IAZ060-094-KSZ022-034>040-054-083-096-NEZ052-066-093-222200-
...KANSAS...SOUTHEAST NEBRASKA AND IOWA...

CITY           SKY/WX    TMP DP  RH WIND       PRES   REMARKS
TOPEKA         PTSUNNY   79  56  45 S14       30.06F
MANHATTAN      MOSUNNY   79  55  43 S16G28    30.02F
EMPORIA        LGT RAIN  75  55  49 S20G28    30.06F
CHANUTE        MOSUNNY   75  57  53 S12       30.10S
WICHITA        PTSUNNY   78  53  41 S20G31    30.04F
OMAHA          PTSUNNY   75  53  46 SE20      29.99F
LINCOLN        MOSUNNY   80  52  37 S21G31    29.97F
FALLS CITY     LGT RAIN  77  56  48 S17G23    30.03F
LAMONI         LGT RAIN  65  48  54 SE12      30.12F
DES MOINES     MOSUNNY   67  47  48 S15       30.12F

$$




USA.gov is the U.S. government's official web portal to all federal, state and local government web resources and services.